Location: Northam
(31.6525°S, 116.6655°E)
Time: 09:39:53
(UTC+08:00)

Explorer 7 - Visible Passes

Search period start: 13 June 2021 00:00
Search period end: 23 June 2021 00:00
Orbit: 484 x 677 km, 50.3° (Epoch: 12 June)

Date Brightness Start Highest point End Pass type
(mag) Time Alt. Az. Time Alt. Az. Time Alt. Az.
13 Jun 7.1 18:09:31 10° SW 18:13:59 61° SE 18:18:39 10° ENE visible
13 Jun 9.7 19:51:09 10° W 19:54:13 18° NW 19:56:24 13° NNW visible
14 Jun 7.2 18:13:50 10° SW 18:18:19 80° NW 18:23:03 10° NE visible
15 Jun 8.3 18:18:20 10° WSW 18:22:37 45° NW 18:27:07 10° NNE visible
16 Jun 9.4 18:23:08 10° WSW 18:26:52 26° NW 18:30:44 10° N visible
17 Jun 10.2 18:28:33 10° W 18:31:03 15° NW 18:33:37 10° NNW visible
